Regional Weather Roundup
Issued by NWS

Home | Current Version | Previous Version | Graphics & Text | Print | Product List | Glossary On
Versions: 1 2 3 4 5 6 7 8 9 10 11 12 13 14 15 16 17 18 19 20 21 22 23 24 25 26 27 28 29 30 31 32 33 34 35 36 37 38 39 40 41 42 43 44 45 46 47 48 49 50
228
ASUS44 KMEG 081210
RWRTN
TENNESSEE HOURLY STATE WEATHER ROUNDUP
NATIONAL WEATHER SERVICE MEMPHIS TN
600 AM CST MON FEB 08 2016

TNZ002-004-019-021-049-052-054-088>092-081300-
WEST TENNESSEE

CITY           SKY/WX    TMP DP  RH WIND       PRES   REMARKS
MEMPHIS INTL   CLEAR     41  23  48 NW8       29.93S
NWS MEMPHIS      N/A     40 N/A N/A MISG        N/A
JACKSON        CLEAR     40  22  48 W15       29.87R WCI  32
DYERSBURG      PTCLDY    37  25  60 W12G20    29.89S WCI  30
UNION CITY     MOCLDY    36  25  64 W7        29.83S WCI  30
PARIS          CLEAR     36  21  55 VRB7      29.82R WCI  30
$$

TNZ008-025-027-028-033-062-065-066-081300-
NORTH MIDDLE TENNESSEE

CITY           SKY/WX    TMP DP  RH WIND       PRES   REMARKS
NASHVILLE      CLEAR     39  28  64 SW8       29.78F WCI  33
CLARKSVILLE    PTCLDY    39  27  62 W12       29.77S WCI  32
SMYRNA         PTCLDY    37  29  73 SW6       29.80S WCI  32
COOKEVILLE     CLEAR     34  28  80 SW3       29.74F
CROSSVILLE     MOCLDY    38  28  67 SW3       29.74F
$$

TNZ061-075-076-078-094-096-097-081300-
SOUTH MIDDLE TENNESSEE

CITY           SKY/WX    TMP DP  RH WIND       PRES   REMARKS
FAYETTEVILLE   CLOUDY    41  32  70 SW5       29.82S
TULLAHOMA      MOCLDY    37  28  70 SW7       29.80S WCI  32
WINCHESTER     CLOUDY    41  30  65 SW6       29.81S
MCMINNVILLE    PTCLDY    37  28  70 S5        29.77F WCI  34
COLUMBIA       CLEAR     39  32  75 W9        29.79S WCI  33
SHELBYVILLE    PTCLDY    39  30  70 SW6       29.81R WCI  35
$$

TNZ017-018-042-046-047-081300-
NORTHEAST TENNESSEE

CITY           SKY/WX    TMP DP  RH WIND       PRES   REMARKS
TRI CITIES     CLOUDY    28  23  81 CALM      29.74F
$$

TNZ012-013-036-069-073-074-081300-
CENTRAL EAST TENNESSEE

CITY           SKY/WX    TMP DP  RH WIND       PRES   REMARKS
KNOXVILLE      LGT RAIN  42  26  53 SW13      29.78
OAK RIDGE      CLOUDY    40  26  57 SW5       29.78F
GATLINBURG     CLOUDY    41  25  52 SW10      29.76S
MORRISTOWN     CLOUDY    39  25  56 W5        29.75S
$$

TNZ083-085-099-081300-
SOUTHEAST TENNESSEE

CITY           SKY/WX    TMP DP  RH WIND       PRES   REMARKS
CHATTANOOGA    CLOUDY    43  28  55 S5        29.82F
$$

SKY/WX REPORTED AS FAIR MEANS FEW OR NO CLOUDS BELOW
12 THOUSAND FEET.





USA.gov is the U.S. government's official web portal to all federal, state and local government web resources and services.